GW1213 Weather Reports


time (UTC)temp
C
wind
direction
speed
KPH
gust
KPH
rain 1hr
cm
rain 24hr
cm
rain mn
cm
humidity
%
barometer
mb
20260502190535 15 275 0.0 6.4 0.00 0.00 0.00 44 1011.7
20260502185533 15 306 1.6 6.4 0.00 0.00 0.00 43 1011.9
20260502185033 15 352 1.6 6.4 0.00 0.00 0.00 43 1012.0
20260502184556 15 0 0.0 4.8 0.00 0.00 0.00 44 1012.1
20260502184034 15 344 3.2 8.0 0.00 0.00 0.00 46 1012.2
20260502183535 15 349 3.2 8.0 0.00 0.00 0.00 45 1012.4
20260502183050 15 352 1.6 4.8 0.00 0.00 0.00 44 1012.4
20260502182534 15 278 0.0 6.4 0.00 0.00 0.00 46 1012.5
20260502182034 15 297 0.0 6.4 0.00 0.00 0.00 45 1012.5
20260502181546 14 344 1.6 6.4 0.00 0.00 0.00 45 1012.6
20260502181034 14 360 0.0 6.4 0.00 0.00 0.00 44 1012.7
20260502180534 14 275 1.6 6.4 0.00 0.00 0.00 44 1012.9
20260502180113 14 0 3.2 6.4 0.00 0.00 0.00 43 1012.9
20260502164034 14 315 3.2 6.4 0.00 0.00 0.00 45 1013.6
20260502163536 13 0 1.6 6.4 0.00 0.00 0.00 44 1013.6
20260502163053 14 313 3.2 9.7 0.00 0.00 0.00 47 1013.7
20260502162535 13 0 0.0 9.7 0.00 0.00 0.00 50 1013.8
20260502162035 13 0 0.0 8.0 0.00 0.00 0.00 49 1013.7
20260502161559 13 350 3.2 8.0 0.00 0.00 0.00 50 1013.7
20260502161039 13 49 0.0 6.4 0.00 0.00 0.00 48 1013.8
20260502160539 13 0 0.0 6.4 0.00 0.00 0.00 46 1013.9
20260502152042 12 50 0.0 4.8 0.00 0.00 0.00 53 1014.0
20260502151606 12 284 1.6 4.8 0.00 0.00 0.00 51 1014.1
20260502151039 12 0 0.0 4.8 0.00 0.00 0.00 51 1014.2
20260502150538 12 322 1.6 4.8 0.00 0.00 0.00 51 1014.3
20260502130539 10 327 1.6 8.0 0.00 0.00 0.00 64 1014.0
20260502123538 10 342 1.6 8.0 0.00 0.00 0.00 65 1013.8
20260502123045 10 5 1.6 8.0 0.00 0.00 0.00 65 1013.8
20260502122538 10 352 4.8 8.0 0.00 0.00 0.00 63 1013.9
20260502122038 10 302 1.6 8.0 0.00 0.00 0.00 65 1013.8
20260502121603 10 321 3.2 8.0 0.00 0.00 0.00 65 1013.8
20260502121042 10 5 1.6 8.0 0.00 0.00 0.00 66 1013.6
20260502120538 10 311 3.2 9.7 0.00 0.00 0.00 65 1013.5
20260502115542 10 315 1.6 9.7 0.00 0.00 0.00 66 1013.8
20260502115038 10 355 3.2 9.7 0.00 0.00 0.00 65 1013.7
20260502114549 10 342 1.6 8.0 0.00 0.00 0.00 67 1013.7
20260502114039 10 304 0.0 8.0 0.00 0.00 0.00 66 1013.6
20260502113538 10 340 1.6 6.4 0.00 0.00 0.00 67 1013.6
20260502113054 10 355 1.6 6.4 0.00 0.00 0.00 69 1013.7
20260502112538 10 5 0.0 6.4 0.00 0.00 0.00 69 1013.7
20260502112038 10 360 3.2 8.0 0.00 0.00 0.00 67 1013.6
20260502111556 10 302 1.6 8.0 0.00 0.00 0.00 70 1013.6
20260502111041 10 325 1.6 9.7 0.00 0.00 0.00 69 1013.6
20260502110538 10 327 3.2 9.7 0.00 0.00 0.00 68 1013.7
20260502110054 10 335 3.2 9.7 0.00 0.00 0.00 69 1013.6
20260502105540 10 346 1.6 6.4 0.00 0.00 0.00 71 1013.5
20260502105040 10 0 1.6 6.4 0.00 0.00 0.00 71 1013.5
20260502104554 10 333 1.6 4.8 0.00 0.00 0.00 71 1013.3
20260502104041 10 0 0.0 8.0 0.00 0.00 0.00 71 1013.2
20260502103538 10 0 1.6 8.0 0.00 0.00 0.00 73 1013.1
20260502103058 10 329 0.0 4.8 0.00 0.00 0.00 73 1013.2
20260502102538 10 335 0.0 4.8 0.00 0.00 0.00 73 1013.0
20260502102038 10 0 0.0 4.8 0.00 0.00 0.00 75 1013.0
20260502101606 10 0 0.0 4.8 0.00 0.00 0.00 73 1012.9
20260502101037 10 0 0.0 3.2 0.00 0.00 0.00 76 1012.8
20260502100537 9 0 0.0 3.2 0.00 0.00 0.00 77 1012.8
20260502100116 9 0 0.0 0.0 0.00 0.00 0.00 78 1012.8
20260502091034 9 0 0.0 1.6 0.00 0.00 0.00 83 1012.0
20260502090535 10 0 0.0 0.0 0.00 0.00 0.00 84 1012.1
20260502071034 10 0 0.0 0.0 0.00 0.00 0.00 84 1011.7
20260502070537 10 0 0.0 0.0 0.00 0.00 0.00 83 1011.7
20260502070048 11 0 0.0 1.6 0.00 0.00 0.00 84 1011.6
20260502065538 11 0 0.0 1.6 0.00 0.00 0.00 84 1011.6
20260502065038 11 0 0.0 0.0 0.00 0.00 0.00 83 1011.6
20260502064551 11 0 0.0 0.0 0.00 0.00 0.00 82 1011.7
20260502064038 11 0 0.0 0.0 0.00 0.00 0.00 82 1011.8
20260502063537 11 0 0.0 0.0 0.00 0.00 0.00 82 1011.8
20260502063057 11 0 0.0 0.0 0.00 0.00 0.00 81 1011.9
20260502062537 11 0 0.0 0.0 0.00 0.00 0.00 81 1011.9
20260502062038 11 0 0.0 0.0 0.00 0.00 0.00 80 1011.9
20260502061548 12 0 0.0 0.0 0.00 0.00 0.00 79 1011.9
20260502061038 12 0 0.0 0.0 0.00 0.00 0.00 79 1012.0
20260502060538 12 0 0.0 0.0 0.00 0.00 0.00 78 1012.1
20260502060111 12 0 0.0 0.0 0.00 0.00 0.00 78 1012.3
20260502055538 12 0 0.0 0.0 0.00 0.00 0.00 77 1012.3
20260502055038 12 0 0.0 0.0 0.00 0.00 0.00 77 1012.3
20260502054549 12 0 0.0 0.0 0.00 0.00 0.00 76 1012.3
20260502054037 12 0 0.0 0.0 0.00 0.00 0.00 75 1012.2
20260502053537 12 0 0.0 0.0 0.00 0.00 0.00 75 1012.2
20260502053100 12 0 0.0 1.6 0.00 0.00 0.00 74 1012.1
20260502052538 12 0 0.0 1.6 0.00 0.00 0.00 73 1012.2
20260502052038 12 0 0.0 1.6 0.00 0.00 0.00 73 1012.2
20260502051600 12 0 0.0 1.6 0.00 0.00 0.00 73 1012.1
20260502051036 12 0 0.0 0.0 0.00 0.00 0.00 72 1012.0
20260502050538 12 0 0.0 0.0 0.00 0.00 0.00 72 1012.0
20260502050058 12 0 0.0 0.0 0.00 0.00 0.00 72 1012.0
20260502045541 12 0 0.0 0.0 0.00 0.00 0.00 72 1012.0
20260502045038 12 0 0.0 0.0 0.00 0.00 0.00 71 1012.0
20260502044550 12 0 0.0 0.0 0.00 0.00 0.00 72 1012.0
20260502044039 12 0 0.0 0.0 0.00 0.00 0.00 72 1011.9
20260502043538 12 0 0.0 0.0 0.00 0.00 0.00 71 1011.9
20260502043105 12 0 0.0 1.6 0.00 0.00 0.00 68 1012.0
20260502042542 12 0 0.0 1.6 0.00 0.00 0.00 68 1012.0
20260502042038 12 0 0.0 0.0 0.00 0.00 0.00 68 1012.0
20260502041549 12 0 0.0 0.0 0.00 0.00 0.00 69 1012.0
20260502041037 11 0 0.0 0.0 0.00 0.00 0.00 68 1012.1
20260502040537 11 0 0.0 0.0 0.00 0.00 0.00 69 1012.0
20260502040054 11 0 0.0 0.0 0.00 0.00 0.00 70 1011.8
20260502035536 11 0 0.0 0.0 0.00 0.00 0.00 71 1011.6
20260502035037 11 0 0.0 0.0 0.00 0.00 0.00 71 1011.6
20260502034547 11 0 0.0 0.0 0.00 0.00 0.00 73 1011.5
20260502034037 11 0 0.0 0.0 0.00 0.00 0.00 74 1011.2
20260502033537 11 0 0.0 0.0 0.00 0.00 0.00 74 1011.1
20260502033053 11 0 0.0 0.0 0.00 0.00 0.00 73 1011.0
20260502032538 11 0 0.0 0.0 0.00 0.00 0.00 73 1011.0
20260502032038 11 0 0.0 0.0 0.00 0.00 0.00 73 1011.0
20260502031546 11 0 0.0 0.0 0.00 0.00 0.00 72 1011.0
20260502031039 11 0 0.0 0.0 0.00 0.00 0.00 72 1010.8
20260502030535 11 0 0.0 0.0 0.00 0.00 0.00 73 1010.9
20260502030053 11 0 0.0 0.0 0.00 0.00 0.00 73 1010.7
20260502025537 11 0 0.0 0.0 0.00 0.00 0.00 73 1010.6
20260502025038 11 0 0.0 0.0 0.00 0.00 0.00 70 1010.6
20260502024553 11 0 0.0 0.0 0.00 0.00 0.00 70 1010.5
20260502024039 12 0 0.0 0.0 0.00 0.00 0.00 71 1010.5
20260502023538 12 0 0.0 0.0 0.00 0.00 0.00 72 1010.5
20260502023057 12 0 0.0 0.0 0.00 0.00 0.00 70 1010.4
20260502022539 12 0 0.0 0.0 0.00 0.00 0.00 71 1010.4
20260502022038 12 0 0.0 0.0 0.00 0.00 0.00 71 1010.4
20260502021552 12 0 0.0 0.0 0.00 0.00 0.00 70 1010.6
20260502021038 12 0 0.0 0.0 0.00 0.00 0.00 71 1010.6
20260502020539 12 0 0.0 0.0 0.00 0.00 0.00 70 1010.6
20260502020050 12 0 0.0 0.0 0.00 0.00 0.00 70 1010.6
20260502015538 12 0 0.0 0.0 0.00 0.00 0.00 69 1010.6
20260502015038 12 0 0.0 0.0 0.00 0.00 0.00 69 1010.5
20260502014554 13 0 0.0 0.0 0.00 0.00 0.00 68 1010.5
20260502014036 13 0 0.0 3.2 0.00 0.00 0.00 69 1010.6
20260502013537 13 0 0.0 3.2 0.00 0.00 0.00 68 1010.4
20260502013057 13 70 0.0 1.6 0.00 0.00 0.00 67 1010.4
20260502012537 13 0 0.0 0.0 0.00 0.00 0.00 64 1010.4
20260502012039 13 0 0.0 0.0 0.00 0.00 0.00 64 1010.4
20260502011605 14 0 0.0 0.0 0.00 0.00 0.00 65 1010.3
20260502011038 14 0 0.0 0.0 0.00 0.00 0.00 64 1010.1
20260502010538 14 0 0.0 0.0 0.00 0.00 0.00 63 1010.1
20260502010055 15 0 0.0 0.0 0.00 0.00 0.00 62 1010.1
20260502005535 15 0 0.0 0.0 0.00 0.00 0.00 60 1009.9
20260502005038 15 0 0.0 0.0 0.00 0.00 0.00 57 1009.7
20260502004559 15 0 0.0 0.0 0.00 0.00 0.00 58 1009.4
20260502004037 16 0 0.0 0.0 0.00 0.00 0.00 58 1009.3
20260502003537 16 0 0.0 0.0 0.00 0.00 0.00 53 1009.3
20260502003048 16 0 0.0 0.0 0.00 0.00 0.00 55 1009.2
20260502002537 16 0 0.0 1.6 0.00 0.00 0.00 51 1009.3
20260502002042 17 0 0.0 1.6 0.00 0.00 0.00 49 1009.2
20260502001548 17 0 0.0 3.2 0.00 0.00 0.00 50 1009.2
20260502001038 17 70 0.0 3.2 0.00 0.00 0.00 44 1009.2
20260502000538 17 0 0.0 1.6 0.00 0.00 0.00 42 1009.1
20260502000106 17 0 0.0 3.2 0.00 0.00 0.00 41 1009.2
20260501235538 18 0 0.0 3.2 0.00 0.00 0.00 40 1009.3
20260501235041 18 117 0.0 3.2 0.00 0.00 0.00 38 1009.2
20260501234556 18 130 0.0 3.2 0.00 0.00 0.00 38 1009.2
20260501234038 18 0 0.0 8.0 0.00 0.00 0.00 38 1009.1
20260501233538 18 76 0.0 8.0 0.00 0.00 0.00 38 1009.1
20260501233053 18 137 0.0 6.4 0.00 0.00 0.00 38 1009.1
20260501232537 19 76 0.0 8.0 0.00 0.00 0.00 37 1009.1
20260501232038 19 78 1.6 12.9 0.00 0.00 0.00 36 1009.0
20260501231601 19 0 3.2 12.9 0.00 0.00 0.00 36 1009.0
20260501231038 19 134 3.2 11.3 0.00 0.00 0.00 36 1009.0
20260501230538 19 80 3.2 11.3 0.00 0.00 0.00 36 1009.1
20260501230048 19 0 1.6 17.7 0.00 0.00 0.00 36 1009.2
20260501225541 19 167 4.8 17.7 0.00 0.00 0.00 35 1009.1
20260501225040 19 143 3.2 11.3 0.00 0.00 0.00 35 1009.2
20260501224557 19 0 3.2 12.9 0.00 0.00 0.00 35 1009.2
20260501224038 19 188 4.8 12.9 0.00 0.00 0.00 34 1009.3
20260501223540 19 167 3.2 12.9 0.00 0.00 0.00 35 1009.4
20260501223057 19 128 3.2 11.3 0.00 0.00 0.00 34 1009.3
20260501222538 20 0 3.2 14.5 0.00 0.00 0.00 34 1009.3
20260501222038 20 0 4.8 14.5 0.00 0.00 0.00 33 1009.3
20260501221611 20 178 4.8 14.5 0.00 0.00 0.00 34 1009.4
20260501221040 20 189 1.6 12.9 0.00 0.00 0.00 32 1009.4
20260501220538 20 148 1.6 12.9 0.00 0.00 0.00 32 1009.6
20260501220055 20 156 3.2 14.5 0.00 0.00 0.00 31 1009.7
20260501215538 20 209 4.8 14.5 0.00 0.00 0.00 30 1009.6
20260501215038 20 161 3.2 16.1 0.00 0.00 0.00 31 1009.6
20260501214549 20 194 3.2 16.1 0.00 0.00 0.00 31 1009.8
20260501214109 20 223 1.6 14.5 0.00 0.00 0.00 30 1009.8
20260501213534 20 89 3.2 14.5 0.00 0.00 0.00 31 1009.8
20260501213049 20 199 3.2 16.1 0.00 0.00 0.00 31 1009.8
20260501212534 20 214 4.8 16.1 0.00 0.00 0.00 30 1009.9
20260501212034 20 192 4.8 12.9 0.00 0.00 0.00 30 1009.9
20260501211548 20 132 1.6 16.1 0.00 0.00 0.00 32 1009.9
20260501211034 20 165 4.8 16.1 0.00 0.00 0.00 33 1009.9
20260501210534 20 68 3.2 14.5 0.00 0.00 0.00 31 1010.0
20260501210047 20 34 3.2 14.5 0.00 0.00 0.00 32 1010.0
20260501205534 20 38 4.8 14.5 0.00 0.00 0.00 31 1010.1
20260501205035 20 180 4.8 12.9 0.00 0.00 0.00 30 1010.0
20260501204546 20 252 6.4 16.1 0.00 0.00 0.00 30 1009.9
20260501204035 20 157 3.2 29.0 0.00 0.00 0.00 32 1009.9
20260501203539 20 268 4.8 29.0 0.00 0.00 0.00 31 1009.9
20260501203051 20 74 8.0 19.3 0.00 0.00 0.00 34 1009.7
20260501202535 20 86 3.2 16.1 0.00 0.00 0.00 34 1010.1
20260501202035 20 215 4.8 20.9 0.00 0.00 0.00 32 1010.1
20260501201549 20 269 1.6 20.9 0.00 0.00 0.00 32 1010.3
20260501201038 20 236 4.8 19.3 0.00 0.00 0.00 30 1010.4
20260501200535 21 136 4.8 12.9 0.00 0.00 0.00 33 1010.5
20260501200049 20 254 3.2 14.5 0.00 0.00 0.00 31 1010.6
20260501195535 20 45 3.2 16.1 0.00 0.00 0.00 31 1010.6
20260501195035 20 140 4.8 16.1 0.00 0.00 0.00 31 1010.8
20260501194552 21 71 1.6 11.3 0.00 0.00 0.00 33 1010.9
20260501194034 21 248 4.8 16.1 0.00 0.00 0.00 31 1010.9
20260501193534 21 253 4.8 16.1 0.00 0.00 0.00 32 1011.1
20260501193047 20 246 3.2 16.1 0.00 0.00 0.00 33 1011.1
20260501192534 20 164 3.2 16.1 0.00 0.00 0.00 33 1011.1
20260501192035 20 78 6.4 16.1 0.00 0.00 0.00 33 1011.3
20260501191551 20 257 1.6 17.7 0.00 0.00 0.00 33 1011.4
20260501191034 20 182 6.4 17.7 0.00 0.00 0.00 32 1011.5